GOPHERSPACE.DE - P H O X Y
gophering on gopher.floodgap.com
 Temperature and Humidity Remote Tracking for Floodgap HQ Data Center
 updated every 10 minutes

                    |5         6         7         8         9        10
                    |012345678901234567890123456789012345678901234567890
--------------------+----------------------------------------------------
9/28/2020 14:00:00  ||||||||||||||||||||||||||||| (76.6 F) 34.9%
9/28/2020 13:50:01  ||||||||||||||||||||||||||||| (76.9 F) 35.1%
9/28/2020 13:40:00  ||||||||||||||||||||||||||||| (76.8 F) 35.5%
9/28/2020 13:30:01  ||||||||||||||||||||||||||||| (76.8 F) 35.8%
9/28/2020 13:20:01  ||||||||||||||||||||||||||||| (76.9 F) 35.8%
9/28/2020 13:10:01  ||||||||||||||||||||||||||||| (77.3 F) 35.2%
9/28/2020 13:00:01  |||||||||||||||||||||||||||||||| (79.6 F) 36.1%
9/28/2020 12:50:01  |||||||||||||||||||||||||||||||| (79.7 F) 37.4%
9/28/2020 12:40:01  ||||||||||||||||||||||||||||||| (79 F) 37.1%
9/28/2020 12:30:00  |||||||||||||||||||||||||||||| (77.9 F) 37.1%
9/28/2020 12:20:01  |||||||||||||||||||||||||||| (75.6 F) 36.2%
9/28/2020 12:10:00  ||||||||||||||||||||||||||| (75.4 F) 36.5%
9/28/2020 12:00:01  ||||||||||||||||||||||||||| (75.3 F) 36.4%
9/28/2020 11:50:01  ||||||||||||||||||||||||||| (75.2 F) 36.5%
9/28/2020 11:40:00  ||||||||||||||||||||||||||| (75.3 F) 36.1%
9/28/2020 11:30:01  ||||||||||||||||||||||||||| (75.4 F) 36.4%
9/28/2020 11:20:00  |||||||||||||||||||||||||||| (75.6 F) 36.2%
9/28/2020 11:10:01  |||||||||||||||||||||||||||| (76.1 F) 36.1%
9/28/2020 11:00:00  ||||||||||||||||||||||||||||| (76.8 F) 35.7%
9/28/2020 10:50:00  |||||||||||||||||||||||||||||||| (79.6 F) 36.5%
9/28/2020 10:40:01  ||||||||||||||||||||||||||||||| (79 F) 36.5%
9/28/2020 10:30:01  |||||||||||||||||||||||||||||| (77.9 F) 36.7%
9/28/2020 10:20:00  ||||||||||||||||||||||||||| (75.4 F) 36%
9/28/2020 10:10:01  |||||||||||||||||||||||||||| (75.8 F) 35.8%
9/28/2020 10:00:00  |||||||||||||||||||||||||||| (76.4 F) 35.4%
9/28/2020 09:50:00  ||||||||||||||||||||||||||||| (77.2 F) 34.8%
9/28/2020 09:40:01  ||||||||||||||||||||||||||||||| (79 F) 33.3%
9/28/2020 09:30:01  ||||||||||||||||||||||||||||||||| (81.3 F) 33.2%
9/28/2020 09:20:01  ||||||||||||||||||||||||||||||||| (81.2 F) 33.1%
9/28/2020 09:10:00  ||||||||||||||||||||||||||||||||| (81.1 F) 33.2%
9/28/2020 09:00:01  ||||||||||||||||||||||||||||||||| (81.1 F) 33.2%
9/28/2020 08:50:00  ||||||||||||||||||||||||||||||||| (81 F) 33.2%
9/28/2020 08:40:01  ||||||||||||||||||||||||||||||||| (80.9 F) 33.1%
9/28/2020 08:30:01  ||||||||||||||||||||||||||||||||| (81 F) 33.2%
9/28/2020 08:20:01  ||||||||||||||||||||||||||||||||| (80.9 F) 33.3%
9/28/2020 08:10:01  ||||||||||||||||||||||||||||||||| (80.9 F) 33.4%
9/28/2020 08:00:00  ||||||||||||||||||||||||||||||||| (80.9 F) 33.3%
9/28/2020 07:50:01  ||||||||||||||||||||||||||||||||| (80.9 F) 33.3%
9/28/2020 07:40:01  ||||||||||||||||||||||||||||||||| (80.9 F) 33.3%
9/28/2020 07:30:01  ||||||||||||||||||||||||||||||||| (81 F) 33.2%
9/28/2020 07:20:00  ||||||||||||||||||||||||||||||||| (81 F) 33.2%
9/28/2020 07:10:00  ||||||||||||||||||||||||||||||||| (81 F) 33.3%
9/28/2020 07:00:01  ||||||||||||||||||||||||||||||||| (81.1 F) 33.2%
9/28/2020 06:50:01  ||||||||||||||||||||||||||||||||| (81.1 F) 33.3%
9/28/2020 06:40:01  ||||||||||||||||||||||||||||||||| (81.1 F) 33.3%
9/28/2020 06:30:01  ||||||||||||||||||||||||||||||||| (81.2 F) 33.2%
9/28/2020 06:20:01  ||||||||||||||||||||||||||||||||| (81.1 F) 33.3%
9/28/2020 06:10:01  ||||||||||||||||||||||||||||||||| (81.2 F) 33.3%
9/28/2020 06:00:00  ||||||||||||||||||||||||||||||||| (81.3 F) 33.2%
9/28/2020 05:50:01  ||||||||||||||||||||||||||||||||| (81.3 F) 33.2%
9/28/2020 05:40:01  ||||||||||||||||||||||||||||||||| (81.3 F) 33.3%
9/28/2020 05:30:00  ||||||||||||||||||||||||||||||||| (81.3 F) 33.3%
9/28/2020 05:20:00  ||||||||||||||||||||||||||||||||| (81.4 F) 33.3%
9/28/2020 05:10:00  ||||||||||||||||||||||||||||||||| (81.3 F) 33.4%
9/28/2020 05:00:01  ||||||||||||||||||||||||||||||||| (81.4 F) 33.3%
9/28/2020 04:50:01  ||||||||||||||||||||||||||||||||| (81.4 F) 33.4%
9/28/2020 04:40:01  ||||||||||||||||||||||||||||||||| (81.4 F) 33.5%
9/28/2020 04:30:00  |||||||||||||||||||||||||||||||||| (81.5 F) 33.5%
9/28/2020 04:20:00  |||||||||||||||||||||||||||||||||| (81.5 F) 33.5%
9/28/2020 04:10:00  |||||||||||||||||||||||||||||||||| (81.5 F) 33.6%
9/28/2020 04:00:01  |||||||||||||||||||||||||||||||||| (81.6 F) 33.6%
9/28/2020 03:50:01  |||||||||||||||||||||||||||||||||| (81.6 F) 33.6%
9/28/2020 03:40:01  |||||||||||||||||||||||||||||||||| (81.6 F) 33.6%
9/28/2020 03:30:01  |||||||||||||||||||||||||||||||||| (81.6 F) 33.7%
9/28/2020 03:20:01  |||||||||||||||||||||||||||||||||| (81.6 F) 33.7%
9/28/2020 03:10:01  |||||||||||||||||||||||||||||||||| (81.6 F) 33.8%
9/28/2020 03:00:01  |||||||||||||||||||||||||||||||||| (81.7 F) 33.7%
9/28/2020 02:50:00  |||||||||||||||||||||||||||||||||| (81.7 F) 33.8%
9/28/2020 02:40:00  |||||||||||||||||||||||||||||||||| (81.6 F) 33.8%
9/28/2020 02:30:00  |||||||||||||||||||||||||||||||||| (81.7 F) 33.9%
9/28/2020 02:20:01  |||||||||||||||||||||||||||||||||| (81.7 F) 33.9%
9/28/2020 02:10:01  |||||||||||||||||||||||||||||||||| (81.6 F) 34.1%
9/28/2020 02:00:00  |||||||||||||||||||||||||||||||||| (81.7 F) 34.1%
9/28/2020 01:50:00  |||||||||||||||||||||||||||||||||| (81.7 F) 34.2%
9/28/2020 01:40:01  |||||||||||||||||||||||||||||||||| (81.6 F) 34.2%
9/28/2020 01:30:01  |||||||||||||||||||||||||||||||||| (81.7 F) 34.2%
9/28/2020 01:20:01  |||||||||||||||||||||||||||||||||| (81.7 F) 34.2%
9/28/2020 01:10:01  |||||||||||||||||||||||||||||||||| (81.6 F) 34.4%
9/28/2020 01:00:00  |||||||||||||||||||||||||||||||||| (81.6 F) 34.3%
9/28/2020 00:50:00  |||||||||||||||||||||||||||||||||| (81.6 F) 34.4%
9/28/2020 00:40:01  |||||||||||||||||||||||||||||||||| (81.5 F) 34.5%
9/28/2020 00:30:01  |||||||||||||||||||||||||||||||||| (81.5 F) 34.6%
9/28/2020 00:20:01  |||||||||||||||||||||||||||||||||| (81.5 F) 34.7%
9/28/2020 00:10:01  ||||||||||||||||||||||||||||||||| (81.4 F) 34.9%
9/28/2020 00:00:00  ||||||||||||||||||||||||||||||||| (81.3 F) 34.8%
9/27/2020 23:50:01  ||||||||||||||||||||||||||||||||| (81.2 F) 34.9%
9/27/2020 23:40:00  ||||||||||||||||||||||||||||||||| (81.1 F) 35%
9/27/2020 23:30:00  ||||||||||||||||||||||||||||||||| (81 F) 34.9%
9/27/2020 23:20:01  ||||||||||||||||||||||||||||||||| (80.9 F) 34.7%
9/27/2020 23:10:01  ||||||||||||||||||||||||||||||||| (81.1 F) 36%
9/27/2020 23:00:00  ||||||||||||||||||||||||||||||||| (81 F) 35.9%
9/27/2020 22:50:00  ||||||||||||||||||||||||||||||||| (80.8 F) 36.1%
9/27/2020 22:40:01  ||||||||||||||||||||||||||||||||| (80.6 F) 36.2%
9/27/2020 22:30:01  |||||||||||||||||||||||||||||||| (80.4 F) 36.2%
9/27/2020 22:20:01  |||||||||||||||||||||||||||||||| (80.2 F) 36.2%
9/27/2020 22:10:01  |||||||||||||||||||||||||||||||| (80.3 F) 37.8%
9/27/2020 22:00:02  |||||||||||||||||||||||||||||||| (80 F) 38%
9/27/2020 21:50:02  |||||||||||||||||||||||||||||||| (79.6 F) 38.3%
9/27/2020 21:40:01  ||||||||||||||||||||||||||||||| (79.1 F) 38.7%
9/27/2020 21:30:02  ||||||||||||||||||||||||||||||| (78.7 F) 39.8%
9/27/2020 21:20:01  |||||||||||||||||||||||||||||| (77.9 F) 39.8%
9/27/2020 21:10:02  |||||||||||||||||||||||||||| (75.9 F) 39.1%
9/27/2020 21:00:02  |||||||||||||||||||||||||||| (75.7 F) 38.9%
9/27/2020 20:50:01  |||||||||||||||||||||||||||| (75.7 F) 38.1%
9/27/2020 20:40:01  ||||||||||||||||||||||||||||| (76.6 F) 37.5%
9/27/2020 20:30:02  ||||||||||||||||||||||||||||| (76.5 F) 37.8%
9/27/2020 20:20:01  |||||||||||||||||||||||||||| (76 F) 37.4%
9/27/2020 20:10:02  ||||||||||||||||||||||||||||| (77.2 F) 36.9%
9/27/2020 20:00:00  |||||||||||||||||||||||||||| (76.4 F) 37.1%
9/27/2020 19:50:01  |||||||||||||||||||||||||||||| (77.5 F) 38.3%
9/27/2020 19:40:00  ||||||||||||||||||||||||||||| (76.5 F) 37.4%
9/27/2020 19:30:00  ||||||||||||||||||||||||||||| (76.6 F) 37.3%
9/27/2020 19:20:01  ||||||||||||||||||||||||||||| (76.9 F) 37.2%
9/27/2020 19:10:01  ||||||||||||||||||||||||||||| (77.4 F) 36.9%
9/27/2020 19:00:01  ||||||||||||||||||||||||||||| (77.1 F) 37.5%
9/27/2020 18:50:01  |||||||||||||||||||||||||||||| (77.5 F) 38.2%
9/27/2020 18:40:00  ||||||||||||||||||||||||||||| (76.7 F) 37.1%
9/27/2020 18:30:01  ||||||||||||||||||||||||||||| (76.6 F) 37%
9/27/2020 18:20:00  |||||||||||||||||||||||||||||| (77.7 F) 38.1%
9/27/2020 18:10:01  ||||||||||||||||||||||||||||| (76.9 F) 36.9%
9/27/2020 18:00:00  ||||||||||||||||||||||||||||| (76.8 F) 37%
9/27/2020 17:50:00  ||||||||||||||||||||||||||||| (77 F) 37.3%
9/27/2020 17:40:01  |||||||||||||||||||||||||||||| (77.6 F) 38%
9/27/2020 17:30:00  ||||||||||||||||||||||||||||| (76.9 F) 37%
9/27/2020 17:20:01  ||||||||||||||||||||||||||||| (76.8 F) 37.1%
9/27/2020 17:10:01  ||||||||||||||||||||||||||||| (77.3 F) 37.2%
9/27/2020 17:00:01  ||||||||||||||||||||||||||||| (77.1 F) 37.3%
9/27/2020 16:50:00  |||||||||||||||||||||||||||||| (77.5 F) 37.7%
9/27/2020 16:40:01  |||||||||||||||||||||||||||||| (77.9 F) 38.7%
9/27/2020 16:30:01  ||||||||||||||||||||||||||||| (77.3 F) 37.7%
9/27/2020 16:20:00  |||||||||||||||||||||||||||||| (77.5 F) 37.3%
9/27/2020 16:10:01  |||||||||||||||||||||||||||||| (78 F) 37.7%
9/27/2020 16:00:00  ||||||||||||||||||||||||||||| (77.3 F) 38.2%
9/27/2020 15:50:01  |||||||||||||||||||||||||||||| (77.9 F) 38.8%
9/27/2020 15:40:01  |||||||||||||||||||||||||||||| (77.5 F) 38.5%
9/27/2020 15:30:00  ||||||||||||||||||||||||||||| (77.4 F) 38.5%
9/27/2020 15:20:01  |||||||||||||||||||||||||||||| (77.7 F) 39.3%
9/27/2020 15:10:01  |||||||||||||||||||||||||||||| (77.6 F) 38.7%
9/27/2020 15:00:01  ||||||||||||||||||||||||||||| (77.1 F) 38.9%
9/27/2020 14:50:00  ||||||||||||||||||||||||||||| (77.1 F) 38.9%
9/27/2020 14:40:01  ||||||||||||||||||||||||||||| (77.2 F) 38.9%
9/27/2020 14:30:01  ||||||||||||||||||||||||||||| (77.3 F) 39.8%
9/27/2020 14:20:00  ||||||||||||||||||||||||||||| (77.3 F) 39.9%
9/27/2020 14:10:01  |||||||||||||||||||||||||||||| (77.8 F) 39.4%
9/27/2020 14:00:00  ||||||||||||||||||||||||||||||||| (80.7 F) 42.9%
9/27/2020 13:50:01  |||||||||||||||||||||||||||||||| (80.1 F) 41.9%
9/27/2020 13:40:01  ||||||||||||||||||||||||||||||| (79.1 F) 42.3%
9/27/2020 13:30:00  |||||||||||||||||||||||||||||| (77.7 F) 43.6%
9/27/2020 13:20:01  |||||||||||||||||||||||||||| (75.9 F) 41.3%
9/27/2020 13:10:01  |||||||||||||||||||||||||||| (75.9 F) 41%
9/27/2020 13:00:00  |||||||||||||||||||||||||||| (75.9 F) 40.7%
9/27/2020 12:50:00  |||||||||||||||||||||||||||| (76 F) 40.3%
9/27/2020 12:40:01  |||||||||||||||||||||||||||| (76.4 F) 40.1%
9/27/2020 12:20:01  |||||||||||||||||||||||||||||| (78.4 F) 38.5%
9/27/2020 12:10:00  |||||||||||||||||||||||||||||||| (80.2 F) 39.5%
9/27/2020 12:00:01  |||||||||||||||||||||||||||||||| (79.9 F) 39.5%
9/27/2020 11:50:01  |||||||||||||||||||||||||||||||| (79.5 F) 39.9%

.